Location: Launois
(49.6535°N, 4.5395°E)
Time: 02:33:59
(UTC+00:00)

Cosmos 381 Rocket - Pass Details

Date: 23 May 2024
Orbit: 955 x 995 km, 74.0° (Epoch: 21 June)

Event Time Altitude Azimuth Distance (km) Brightness Sun altitude
Rises 00:29:11 0° 335° (NNW) 3,724 8.4 -18.8°
Reaches altitude 10° 00:31:46 10° 333° (NNW) 2,770 7.6 -18.7°
Maximum altitude 00:38:10 74° 250° (WSW) 1,034 4.5 -18.5°
Enters shadow 00:41:54 26° 171° (S) 1,817 5.4 -18.3°
